Kirksville, MO

1:42 PM CST on February 21, 2017 (GMT -0600)
Kirksville Regional

Weather History for KIRK - December, 2014

Change the Weather History Date:

Monday, December 8, 2014

  Actual Average Record
Temperature  
Mean Temperature 42 °F 30 °F  
Max Temperature 49 °F 39 °F 67 °F (1991)
Min Temperature 34 °F 22 °F -5 °F (1927)
Degree Days  
Heating Degree Days 23 34  
Month to date heating degree days 274 265  
Since 1 July heating degree days 1595 1486  
Cooling Degree Days 0 0  
Month to date cooling degree days 0 0  
Year to date cooling degree days 958 939  
Moisture  
Dew Point 36 °F    
Average Humidity 78    
Maximum Humidity 100    
Minimum Humidity 56    
Precipitation  
Precipitation 0.01 in 0.07 in 0.79 in (1980)
Month to date precipitation 0.23 0.53  
Year to date precipitation 43.86 38.09  
Sea Level Pressure  
Sea Level Pressure 30.17 in    
Wind  
Wind Speed 10 mph (West)    
Max Wind Speed 20 mph    
Max Gust Speed 29 mph    
Visibility 6 miles    
Events Fog    
T = Trace of Precipitation, MM = Missing Value Source: NWS Daily Summary

Daily Weather History Graph

Daily Weather History Graph

Search for Another Location

Airport or City:

Trip Planner

Search our weather history database for the weather conditions in past years. The results will help you decide how hot, cold, wet, or windy it might be!

Date:

Astronomy

Dec. 08, 2014 Rise Set
Actual Time 7:19 AM CST 4:44 PM CST
Civil Twilight 6:49 AM CST 5:14 PM CST
Nautical Twilight 6:15 AM CST 5:48 PM CST
Astronomical Twilight 5:42 AM CST 6:21 PM CST
Moon 7:08 PM CST (12/8) 8:51 AM CST (12/8)
Length of Visible Light 10h 25m
Length of Day
9h 24m
Waning Gibbous, 95% of the Moon is Illuminated
Dec 8
Waning Gibbous
Dec 14
Last Quarter
Dec 21
New
Dec 28
First Quarter
Jan 4
Full

Hourly Weather History & Observations

Time (CST) Temp. Windchill Dew Point Humidity Pressure Visibility Wind Dir Wind Speed Gust Speed Precip Events Conditions
12:28 AM 36.0 °F 31.1 °F 36.0 °F 100% 30.21 in 3.0 mi South 5.8 mph - 0.00 in   Overcast
12:55 AM 36.0 °F 31.1 °F 36.0 °F 100% 30.23 in 3.0 mi South 5.8 mph - 0.00 in   Overcast
1:55 AM 37.0 °F 32.4 °F 36.0 °F 96% 30.21 in 3.0 mi South 5.8 mph - 0.01 in   Overcast
2:01 AM 37.0 °F 33.3 °F 37.0 °F 100% 30.17 in 1.8 mi SSW 4.6 mph - N/A   Overcast
2:14 AM 36.0 °F 32.1 °F 36.0 °F 100% 30.17 in 1.0 mi SSW 4.6 mph - N/A   Overcast
2:55 AM 37.0 °F 33.3 °F 37.0 °F 100% 30.21 in 1.2 mi SSW 4.6 mph - N/A   Overcast
3:48 AM 37.0 °F 31.6 °F 37.0 °F 100% 30.15 in 0.8 mi SSW 6.9 mph - N/A   Overcast
3:55 AM 37.0 °F 32.4 °F 37.0 °F 100% 30.18 in 0.8 mi SSW 5.8 mph - N/A   Overcast
4:23 AM 37.9 °F 33.5 °F 37.9 °F 100% 30.14 in 1.0 mi SW 5.8 mph - N/A   Overcast
4:38 AM 37.9 °F 32.1 °F 37.9 °F 100% 30.15 in 0.8 mi SW 8.1 mph - N/A   Overcast
4:55 AM 37.9 °F 31.5 °F 37.9 °F 100% 30.17 in 0.5 mi SW 9.2 mph - N/A Fog Fog
5:55 AM 37.9 °F 32.7 °F 37.9 °F 100% 30.17 in 0.5 mi WSW 6.9 mph - N/A Fog Fog
6:35 AM 39.0 °F 34.0 °F 39.0 °F 100% 30.13 in 1.0 mi WSW 6.9 mph - N/A   Mist
6:50 AM 39.2 °F 34.2 °F 39.2 °F 100% 30.13 in 2.5 mi WSW 6.9 mph - N/A   Overcast
6:55 AM 39.9 °F 35.1 °F 39.9 °F 100% 30.17 in 3.0 mi West 6.9 mph - N/A   Overcast
7:19 AM 39.9 °F 33.9 °F 39.9 °F 100% 30.13 in 2.5 mi West 9.2 mph - N/A   Overcast
7:27 AM 39.9 °F 33.9 °F 39.9 °F 100% 30.13 in 3.0 mi West 9.2 mph - N/A   Overcast
7:41 AM 39.9 °F 33.4 °F 39.9 °F 100% 30.14 in 3.0 mi West 10.4 mph - N/A   Overcast
7:55 AM 39.9 °F 33.4 °F 39.9 °F 100% 30.17 in 2.5 mi West 10.4 mph - N/A   Overcast
8:02 AM 41.0 °F 35.2 °F 41.0 °F 100% 30.14 in 3.0 mi West 9.2 mph - N/A   Overcast
8:14 AM 41.0 °F 33.9 °F 41.0 °F 100% 30.15 in 3.0 mi West 12.7 mph - N/A   Overcast
8:55 AM 41.0 °F 34.7 °F 39.9 °F 96% 30.19 in 5.0 mi WNW 10.4 mph - N/A   Overcast
9:19 AM 42.1 °F 36.6 °F 39.9 °F 92% 30.16 in 6.0 mi West 9.2 mph - N/A   Overcast
9:55 AM 43.0 °F 36.0 °F 39.9 °F 89% 30.20 in 6.0 mi West 13.8 mph - N/A   Overcast
10:32 AM 43.0 °F 35.7 °F 39.0 °F 86% 30.16 in 7.0 mi WNW 15.0 mph 21.9 mph N/A   Overcast
10:50 AM 44.6 °F 38.4 °F 39.2 °F 81% 30.15 in 8.0 mi West 12.7 mph - N/A   Overcast
10:55 AM 44.1 °F 38.6 °F 39.0 °F 82% 30.19 in 8.0 mi West 10.4 mph - N/A   Overcast
11:29 AM 45.0 °F 38.5 °F 39.0 °F 80% 30.14 in 10.0 mi West 13.8 mph - N/A   Overcast
11:55 AM 44.1 °F 37.1 °F 37.0 °F 76% 30.16 in 10.0 mi West 15.0 mph 23.0 mph N/A   Overcast
12:55 PM 44.1 °F 36.5 °F 37.0 °F 76% 30.16 in 10.0 mi West 17.3 mph - N/A   Mostly Cloudy
1:24 PM 46.0 °F 38.8 °F 36.0 °F 68% 30.12 in 10.0 mi West 18.4 mph 28.8 mph N/A   Scattered Clouds
1:55 PM 46.9 °F - 35.1 °F 63% 30.15 in 10.0 mi WNW 16.1 mph 24.2 mph N/A   Clear
2:55 PM 48.9 °F - 35.1 °F 59% 30.15 in 10.0 mi WNW 13.8 mph 21.9 mph N/A   Clear
3:55 PM 48.0 °F - 34.0 °F 58% 30.16 in 10.0 mi West 12.7 mph - N/A   Clear
4:55 PM 44.1 °F 39.0 °F 32.0 °F 63% 30.17 in 10.0 mi WNW 9.2 mph - N/A   Clear
5:55 PM 41.0 °F 36.4 °F 30.9 °F 67% 30.18 in 10.0 mi WNW 6.9 mph - N/A   Clear
6:55 PM 39.9 °F 34.5 °F 30.9 °F 70% 30.20 in 10.0 mi NW 8.1 mph - N/A   Clear
7:55 PM 39.0 °F 33.4 °F 32.0 °F 76% 30.22 in 10.0 mi NNW 8.1 mph - N/A   Mostly Cloudy
8:55 PM 37.9 °F 32.1 °F 32.0 °F 79% 30.23 in 10.0 mi North 8.1 mph - N/A   Overcast
9:55 PM 37.0 °F 28.9 °F 30.0 °F 76% 30.24 in 10.0 mi North 12.7 mph - N/A   Overcast
10:51 PM 35.6 °F 27.1 °F 30.2 °F 81% 30.22 in 10.0 mi North 12.7 mph 18.4 mph N/A   Overcast
10:55 PM 36.0 °F 27.1 °F 30.0 °F 79% 30.26 in 10.0 mi North 13.8 mph 18.4 mph N/A   Overcast
11:55 PM 33.8 °F 24.3 °F 24.8 °F 70% 30.24 in 10.0 mi NNW 13.8 mph 24.2 mph N/A   Overcast